Location: ????????
(60.5616°N, 46.8254°E)
Time: 10:26:07
(UTC+00:00)

Cosmos 1238 Rocket - Pass Details

Date: 18 February 2020
Orbit: 373 x 1032 km, 83.0° (Epoch: 04 April)

Event Time Altitude Azimuth Distance (km) Brightness Sun altitude
Rises 14:45:59 0° 163° (SSE) 3,590 6.9 -7.6°
Reaches altitude 10° 14:48:30 10° 157° (SSE) 2,713 6.2 -7.9°
Maximum altitude 14:54:28 44° 88° (E) 1,382 4.4 -8.7°
Drops below altitude 10° 15:00:44 10° 19° (NNE) 2,845 6.2 -9.4°
Sets 15:03:25 0° 14° (NNE) 3,780 6.9 -9.8°
